www.pogodaiklimat.ru

Погода и климат >> Архив погоды >> Россия >> Якутия >> Исить


АРХИВ ПОГОДЫ в Исити

Время (UTC), дата Ветер
(напр.,м/с)
 
Видим.   Явления Облачность Т
(С)
Тd
(С)
f
(%)
Тe
(С)
Тes
(С)
Комфортность P
(гПа)
Po
(гПа)
Тmin
(С)
Tmax
(С)
R
(мм)
R24
(мм)
S
(см)
00 13.08 ЮВ 1 50 км 10/3 300 м
[St Cs]
+12.7 +9.6 81 +13 +16 1009.5 993.8 +7.3
03 13.08 ЮВ 1 50 км 6/4 1000 м
[Cu med, cong Ci fib]
+19.1 +13.3 69 +21 +28 комфорт 1007.8 992.6
06 13.08 В 4 50 км 6/5 1000 м
[Cb calv Ci fib]
+23.7 +7.6 36 +24 +27 комфорт 1006.3 991.3
09 13.08 СВ 2 50 км 10/3 1000 м
[Sc Ac As Cs]
+23.1 +8.7 40 +24 +25 комфорт 1005.4 990.4
12 13.08 В 1 50 км 10/0
[Ac As Cs]
+20.5 +9.0 48 +23 +23 комфорт 1005.6 990.4 +24.5
15 13.08 штиль 0 50 км 10/0
[Ac As Cs]
+17.5 +10.8 65 +18 +18 1006.5 991.2
18 13.08 В 2 50 км 10/0
[Ac As Cs]
+17.7 +9.2 57 +18 +18 1006.3 991.0
21 13.08 С 2 50 км 10/0
[Ac As Cs]
+15.7 +9.3 66 +16 +16 1006.4 991.0
00 14.08 В 2 50 км 10/3 1000 м
[Sc Ac As Cs]
+16.5 +11.5 72 +17 +18 1006.1 990.7 +15.1
03 14.08 В 2 50 км 10/3 600 м
[Cb calv As trans]
+19.0 +14.0 73 +21 +23 комфорт 1005.2 990.0
06 14.08 В 1 50 км 10/4 1000 м
[Sc Ac As]
+20.1 +14.5 70 +23 +25 комфорт 1005.1 989.9
09 14.08 СЗ 1 50 км 10/6 1000 м
[Sc Ac As]
+19.3 +14.9 76 +22 +22 комфорт 1004.7 989.5
12 14.08 штиль 0 20 км слаб. дождь 10/3 1000 м
[Frnb As op]
+16.3 +15.6 96 +16 +16 1006.0 990.6 +20.7 2
15 14.08 С 1 20 км слаб. дождь 10/3 1000 м
[Sc As op]
+15.5 +14.6 94 +16 +16 1005.7 990.3
18 14.08 штиль 0 20 км слаб. дождь 10/8 600 м
[Frnb As op]
+15.2 +14.9 98 +15 +15 1005.6 990.2
21 14.08 С 1 50 км {дождь} 10/10 300 м
[St]
+15.3 +14.8 97 +16 +16 1005.7 990.3
00 15.08 СВ 1 20 км слаб. дождь 10/5 300 м
[St As op]
+15.4 +14.2 93 +16 +17 1005.7 990.3 +14.8 9
03 15.08 ЮВ 1 20 км {дождь} 10/8 600 м
[St As op]
+15.8 +14.8 94 +16 +17 1006.0 990.6
06 15.08 В 1 20 км слаб. морось {дождь} 10/10 300 м
[St]
+16.0 +15.5 97 +17 +17 1006.3 990.9
09 15.08 В 1 50 км {морось} 9/9 600 м
[St]
+16.9 +15.5 91 +18 +18 1006.7 991.3
12 15.08 штиль 0 50 км {морось} 10/6 600 м
[St As op]
+16.3 +15.8 97 +16 +16 1007.4 992.0 +17.2 2
15 15.08 СВ 1 50 км 9/4 600 м
[St Ac As]
+15.6 +15.1 97 +16 +16 1008.2 992.7
18 15.08 СВ 1 50 км 10/10 300 м
[St]
+14.4 +13.9 97 +15 +15 1009.2 993.6
21 15.08 СВ 1 50 км 10/10 300 м
[St]
+13.6 +13.2 97 +14 +14 1009.5 993.9
00 16.08 СВ 1 50 км {морось} 10/10 300 м
[St]
+14.8 +14.3 97 +15 +15 1010.4 994.8 +13.4 0.0
03 16.08 СВ 1 50 км 8/5 1000 м
[Cb calv Ci fib]
+19.7 +15.9 79 +23 +28 комфорт 1009.9 994.7
06 16.08 В 4 50 км 9/8 1000 м
[Cb calv Ac trans Ci sp]
+20.7 +15.9 74 +24 +25 комфорт 1009.1 993.9
09 16.08 В 2 50 км 9/6 1000 м
[Sc diur, vesp Ac trans]
+19.6 +17.3 87 +23 +23 комфорт 1009.5 994.3
12 16.08 штиль 0 50 км 9/6 1000 м
[Sc Ac trans]
+18.1 +16.3 89 +18 +18 1010.1 994.8 +21.6
15 16.08 СВ 1 50 км 9/3 1000 м
[Sc Ac trans]
+17.1 +15.4 90 +18 +18 1010.1 994.7
18 16.08 штиль 0 50 км 8/3 1000 м
[Sc Ac trans]
+16.2 +14.6 90 +16 +16 1010.5 995.0
21 16.08 В 1 50 км 9/0
[Ac trans]
+16.0 +14.4 90 +17 +17 1011.2 995.7
00 17.08 В 3 50 км 10/10 600 м
[St]
+17.3 +15.6 90 +17 +17 1012.0 996.6 +14.9
03 17.08 В 4 50 км 9/9 600 м
[Sc]
+18.7 +16.5 87 +20 +20 1011.9 996.6
06 17.08 В 4 50 км 10/3 1000 м
[Cu med, cong Cs]
+21.7 +16.4 72 +26 +28 душно 1010.2 995.1
09 17.08 В 2 50 км 10/0
[Ac lent Cs]
+22.7 +13.6 56 +26 +27 жарко 1008.2 993.1
12 17.08 ЮВ 5
{12}
50 км 10/0
[Ac As Cs]
+19.5 +9.6 53 +20 +20 1009.4 994.2 +23.5
15 17.08 В 5 20 км слаб. дождь 10/3 1000 м
[Sc As op]
+14.5 +7.9 65 +13 +13 1011.7 996.1
18 17.08 В 3 20 км слаб. дождь 10/6 1000 м
[Sc As op]
+12.1 +10.0 87 +10 +10 1010.0 994.3
21 17.08 В 4 50 км {дождь} 10/0
[Ac As]
+12.1 +8.5 79 +10 +10 1010.0 994.3
00 18.08 В 3 20 км слаб. дождь 10/4 600 м
[St As op]
+11.7 +9.1 84 +10 +10 1009.5 993.8 +10.9 1
03 18.08 СВ 3 50 км в посл. час дождь 10/8 600 м
[St As op]
+13.3 +11.0 86 +12 +12 1008.5 992.9
06 18.08 В 4 50 км {дождь} 10/8 1000 м
[Sc As op]
+14.4 +9.8 74 +13 +13 1007.1 991.6
09 18.08 В 3 20 км слаб. морось 10/10 1000 м
[Sc]
+13.2 +11.1 87 +12 +12 1006.8 991.3
12 18.08 СВ 2 50 км {морось} 8/6 1000 м
[Sc Ci fib]
+13.1 +11.0 87 +12 +12 1007.2 991.7 +15.1 1
15 18.08 штиль 0 50 км 9/9 1000 м
[Sc]
+12.9 +10.8 87 +12 +12 1007.9 992.3
18 18.08 СЗ 1 50 км 3/0
[Ci fib]
+9.5 +9.3 99 +9 +9 1009.3 993.5
21 18.08 З 1 50 км 3/1 300 м
[St Ci fib]
+7.3 +6.9 97 +6 +6 1011.0 995.1
00 19.08 ЮВ 1 50 км 3/3 1000 м
[Cu hum Ci fib]
+13.7 +9.2 74 +14 +18 1011.9 996.3 +9.6
03 19.08 Ю 1 50 км 8/8 1000 м
[Cu med, cong]
+16.0 +11.2 73 +17 +19 1011.7 996.2
06 19.08 Ю 1 50 км 6/5 1000 м
[Cu med, cong Ci fib]
+20.0 +10.7 55 +23 +27 комфорт 1014.4 996.2
09 19.08 В 1 50 км 9/3 1000 м
[Cu med, cong Ac lent Ci fib]
+19.5 +11.8 61 +22 +23 комфорт 1011.7 996.5
12 19.08 СВ 1 50 км 8/3 1000 м
[Sc diur, vesp Ac lent Ci fib]
+16.7 +11.6 72 +18 +18 1012.0 996.6 +20.8
15 19.08 СВ 1 50 км 9/3 1000 м
[Sc Ac trans]
+13.3 +11.4 88 +13 +13 1012.4 996.8
18 19.08 СВ 1 50 км 8/1 1000 м
[Sc Ac trans]
+12.4 +10.9 91 +12 +12 1012.9 997.2
21 19.08 В 1 50 км 10/3 1000 м
[Sc Ac As]
+11.5 +10.3 92 +11 +11 1012.9 997.2

 

Местоположение метеостанции Исить (Якутия, Россия): широта 60.82 долгота 125.30 высота над уровнем моря 131 м.

В архиве по умолчанию представлена погода в Исити за последнюю неделю. Архивные данные за месяц целиком и за предыдущие месяцы, начиная с января 2011 года, Вы можете получить, выбрав интересующий диапазон дат из раскрывающегося списка и нажав кнопку "Ввод!".


*Определитесь, кто Вы:
робот инопланетянин человек

Внимание! Время в таблицах - всемирное. Для получения местного времени необходимо прибавить поправку, которая равна 9 ч.

Смотрите также архив погоды в соседних городах и на ближайших метеорологических станциях:

Погода в Тонгулахе (Якутия, Россия) (130 км)
Погода в Буяге (Якутия, Россия) (159 км)
Погода в Бердигестяхе (Якутия, Россия) (185 км)
Погода в Томмоте (Якутия, Россия) (212 км)
Погода в Покровске (Якутия, Россия) (217 км)
Погода в Алдане (Якутия, Россия) (247 км)
Погода в Тегюльте (Якутия, Россия) (259 км)
Погода в Якутске (Якутия, Россия) (264 км)
Погода в Олекминске (Якутия, Россия) (271 км)
Погода в Джикимде (Якутия, Россия) (283 км)

Пояснения к столбцам:

Ветер - указаны скорость ветра в м/с - средняя за 10 мин, порывы в срок и между сроками (в фигурных скобках) и направление, откуда дует ветер: С - северный, СВ - северо-восточный, В - восточный, ЮВ - юго-восточный, Ю - южный, ЮЗ - юго-западный, З - западный, СЗ - северо-западный.
Видимость - горизонтальная дальность видимости в метрах или километрах. При видимости от 1 до 10 км при отсутствии осадков обычно наблюдается дымка, при ухудшении видимости до 1 км и менее - туман. В сухую погоду видимость может ухудшаться дымом, пылью или мглою.
Явления - указаны атмосферные явления, наблюдавшиеся в срок или в последний час перед сроком; фигурными скобками обозначены явления, наблюдавшиеся между сроками (за 1-3 часа до срока); квадратными скобками обозначены град или гололедные отложения с указанием их диаметра в мм.
Облачность - указаны через наклонную черту общая и нижняя облачность в баллах и высота нижней границы облаков в метрах; квадратными скобками обозначены формы облаков: Ci - перистые, Cs - перисто-слоистые, Cc - перисто-кучевые, Ac - высококучевые, As - высокослоистые, Sc - слоисто-кучевые, Ns - слоисто-дождевые, Cu - кучевые, Cb - кучево-дождевые. Подробнее классификацию облаков см. в Атласе облаков (PDF).
T - Температура воздуха - температура, измеренная на высоте 2 м над землей.
Td - Температура точки росы - температура, при понижении до которой содержащийся в воздухе водяной пар достигнет насыщения.
f - Относительная влажность воздуха - влажноcть воздуха, измеренная на высоте 2 м над землей.
Te - Эффективная температура - температура, которую ощущает одетый по сезону человек в тени. Характеристика душности погоды. При расчете учитывается влияние влажности воздуха и скорости ветра на теплоощущения человека.
Tes - Эффективная температура на солнце - температура, которую ощущает человек, с поправкой на солнечный нагрев. Характеристика знойности погоды. Зависит от высоты солнца над горизонтом, облачности и скорости ветра. Ночью, в пасмурную погоду, а также при ветре 12 м/с и более поправка равна нулю.
P - Атмосферное давление - приведенное к уровню моря атмосферное давление.
Po - Атмосферное давление - измеренное на уровне метеостанции атмосферное давление.
Tmin - Минимальная температура - минимум температуры воздуха на высоте 2 м над землей.
Tmax - Максимальная температура - максимум температуры воздуха на высоте 2 м над землей.
R - Количество осадков - Количество выпавших осадков за период времени, мм. При наведении курсора мыши на число - период времени, за который выпало указанное количество осадков.
R24 - Количество осадков - Количество выпавших осадков за 24 часа, мм.
S - Снежный покров - Высота снежного покрова, см. При наведении курсора мыши на число - состояние снежного покрова и степень покрытия местности в баллах.